Regional Weather Roundup
Issued by NWS

Home | Current Version | Previous Version | Text Only | Print | Product List | Glossary On
Versions: 1 2 3 4 5 6 7 8 9 10 11 12 13 14 15 16 17 18 19 20 21 22 23 24 25 26 27 28 29 30 31 32 33 34 35 36 37 38 39 40 41 42 43 44 45 46 47 48 49 50
000
ASUS44 KFWD 230915
RWRTX
NORTH TEXAS HOURLY WEATHER ROUNDUP
NATIONAL WEATHER SERVICE FORT WORTH TX
400 AM CDT SAT AUG 23 2014

NOTE: "FAIR" INDICATES FEW OR NO CLOUDS BELOW 12,000 FEET WITH NO
SIGNIFICANT WEATHER AND/OR OBSTRUCTIONS TO VISIBILITY.

TXZ118-119-231000-
DALLAS/FORT WORTH METROPLEX

CITY           SKY/WX    TMP DP  RH WIND       PRES   REMARKS
DFW AIRPORT    CLEAR     83  68  60 S13       29.96S
DALLAS LOVE    CLEAR     83  68  60 S10       29.97R
FTW MEACHAM    CLEAR     84  65  52 S10       29.96S
DAL-EXECUTIVE  CLEAR     82  68  62 S9        29.97S
FTW-ALLIANCE   CLEAR     78  66  66 S5        29.96S
FTW-NAS-JRB    CLEAR     84  63  49 S12       30.01R
FTW-SPINKS     CLEAR     80  66  61 S6        29.99R
ARLINGTON      CLEAR     81  67  62 S8        29.98R
GRAND PRAIRIE  CLEAR     81  67  62 SE6       29.99R
ADDISON        CLEAR     84  66  55 S9        29.99S
MESQUITE       CLEAR     78  70  76 S6        29.98R
LANCASTER      CLEAR     79  68  68 S6        29.98S
$$

TXZ091>094-102>105-117-120-121-131>134-231000-
NORTH CENTRAL TEXAS

CITY           SKY/WX    TMP DP  RH WIND       PRES   REMARKS
SHRMAN/DENISON CLEAR     79  68  69 S9        29.98S
GAINESVILLE    CLEAR     76  66  71 CALM      29.98S
BOWIE          CLEAR     76  66  70 SE3       29.98R
BRIDGEPORT     CLEAR     82  60  46 S6        29.98R
DECATUR        CLEAR     80  65  58 S10       29.98R
DENTON         CLEAR     82  66  58 S12       29.96S
MCKINNEY       CLEAR     79  70  74 S6        29.97S
GREENVILLE     CLEAR     77  70  78 SE5       29.99R
ROCKWALL       CLEAR     80  71  74 S10G16    29.97S
TERRELL        CLEAR     81  72  74 S6        29.98S
WAXAHACHIE     CLEAR     74  67  76 S3        30.00S
CLEBURNE       CLEAR     81  66  61 S8        30.00S
GRANBURY       CLEAR     82  63  52 S7        29.99R
$$

TXZ083>090-098>101-113>116-127>130-139>142-154-155-231000-
WESTERN NORTH TEXAS

CITY           SKY/WX    TMP DP  RH WIND       PRES   REMARKS
WICHITA FALLS  CLEAR     73  57  57 S8        29.94S
WF-KICKAPOO    CLEAR     74  56  53 S6        29.96R
VERNON         CLEAR     76  48  37 S6        29.95S
ABILENE        CLEAR     80  58  46 S9        30.01S
ABILENE-DYESS  CLEAR     79  59  50 S12G20    30.00S
BRECKENRIDGE   CLEAR     83  57  41 SW8G16    29.98R
GRAHAM         CLEAR     81  59  46 S3        29.96S
MINERAL WELLS  CLEAR     81  61  50 S9        29.96S
STEPHENVILLE   CLEAR     75  60  59 CALM      30.03R
COMANCHE       CLEAR     79  58  49 S13       30.00S
BROWNWOOD      MOCLDY    77  59  53 S6        30.02R
COLEMAN        CLEAR     74  58  55 S9        30.02R
BRADY          CLEAR     73  57  56 S5        30.03F
$$

TXZ143>147-156>162-174-175-231000-
CENTRAL TEXAS

CITY           SKY/WX    TMP DP  RH WIND       PRES   REMARKS
WACO           CLEAR     80  69  69 S12       29.99S
WACO-MCGREGOR  CLEAR     81  66  61 S10       30.00S
HILLSBORO      CLEAR     79  67  66 S5        29.99S
CORSICANA      CLEAR     79  71  76 S8        30.00S
MEXIA          CLEAR     75  72  88 S3        29.99S
HEARNE           N/A     75  72  91 CALM      30.00F
CAMERON        CLEAR     77  74  89 S3        30.00S
TEMPLE         CLEAR     77  66  69 S9        30.00R
KILLEEN        CLEAR     75  66  73 S7        30.01S
KILLEEN-SKYLRK CLEAR     77  64  65 S6        30.00S
FORT HOOD      CLEAR     80  68  66 S7        30.00F
GATESVILLE     CLEAR     79  64  61 S6        30.03R
HAMILTON       CLEAR     78  58  50 S9G16     30.02S
LAMPASAS       CLEAR     76  64  67 S7        30.01S
$$

TXZ095>097-106>112-122>126-135>138-148>153-164>167-231000-
EAST TEXAS

CITY           SKY/WX    TMP DP  RH WIND       PRES   REMARKS
PARIS          CLEAR     73  66  78 S6        29.99S
SULPHUR SPRNGS CLEAR     79  70  74 S6        30.01S
CLARKSVILLE    MOCLDY    75  72  89 CALM      29.99S
MOUNT PLEASANT CLEAR     77  70  79 CALM      30.01S
GILMER         CLEAR     75  73  94 S3        30.01S
MINEOLA        CLEAR     79  73  83 CALM      30.00S
TYLER          CLEAR     77  71  82 S7        30.00S
LONGVIEW       CLEAR     76  71  85 S6        29.99F
MARSHALL       CLEAR     76  73  88 CALM      30.01F
ATHENS         CLEAR     73  72  94 CALM      29.99S
PALESTINE      CLEAR     77  73  88 CALM      30.01S
JACKSONVILLE   CLEAR     76  73  91 S6        30.03S
HENDERSON      CLEAR     74  72  96 CALM      30.02S
NACOGDOCHES    CLEAR     72  70  94 CALM      30.02R
LUFKIN         CLEAR     77  73  87 CALM      30.00S
$$

SUPPLEMENTAL OBSERVATIONS (CENTRAL)

CITY           SKY/WX    TMP DP  RH WIND       PRES   REMARKS
LAKE TEXOMA      N/A     79  68  69 SE3         N/A
CADDO GRASSLND   N/A     79  70  73 S9          N/A
PAT MAYSE LAKE   N/A     79  72  78 SE10        N/A
GREENVILLE       N/A     75  70  83 S3          N/A
CEDAR HILL       N/A     81  68  65 S8G16       N/A
ATHENS           N/A     79  72  78 S5          N/A
PALESTINE        N/A     77  73  88 SW2         N/A
LAKE LIMESTONE   N/A     75  70  83 S5          N/A
MCGREGOR         N/A     77  66  69 S7          N/A
TEMPLE           N/A     75  70  83 S6          N/A
$$

SUPPLEMENTAL OBSERVATIONS (WEST)

CITY           SKY/WX    TMP DP  RH WIND       PRES   REMARKS
MILLERS CREEK    N/A     73  45  35 S7          N/A
POSSUM KINGDOM   N/A     82  57  42 S9          N/A
LBJ GRASSLAND    N/A     81  64  57 S7          N/A
GRANBURY         N/A    N/A N/A N/A S7          N/A
COMANCHE         N/A     79  57  47 S9G18       N/A
HAMBY            N/A     79  55  44 S8          N/A
COLORADO BEND    N/A     75  59  57 S5          N/A
$$

SUPPLEMENTAL OBSERVATIONS (EAST)

CITY           SKY/WX    TMP DP  RH WIND       PRES   REMARKS
TEXARKANA        N/A     70  68  94 CALM        N/A
LINDEN           N/A     75  70  83 SW1         N/A
CADDO LAKE       N/A     70  68  94 CALM        N/A
HENDERSON        N/A     73  70  88 S3          N/A
LUFKIN           N/A     73  72  94 MISG        N/A
N SABINE NF      N/A     72  68  88 MISG        N/A
$$

SUPPLEMENTAL OBSERVATIONS ARE A COLLECTION OF AUTOMATED INSTRUMENTS
THAT ARE MAINTAINED BY A VARIETY OF FEDERAL AND STATE AGENCIES.
CERTAIN ELEMENTS...SUCH AS HUMIDITY VALUES AND SUSTAINED WIND
SPEEDS...MAY BE APPROXIMATED.




USA.gov is the U.S. government's official web portal to all federal, state and local government web resources and services.